Simultaneous Nadir Overpasses (SNOs) Predictions

Prediction of SNOs between AQUA and NPP Satellite Orbit:

Table of predicted SNOs for the next 14.0 days since TLE Epoch: 7/10/2021
Index Date (AQUA) Time (AQUA) Lat,Lon (AQUA) SZA (AQUA ) Date (NPP) Time (NPP) Lat,Lon (NPP) SZA (NPP ) Distance(km) Time Diff (sec)
1 07/11/2021 21:48:48 75.21, 89.59 76.92 07/11/2021 21:48:11 75.21, 89.57 76.95 0.63 37
2 07/11/2021 22:37:52 -76.35, -99.37 104.43 07/11/2021 22:38:32 -76.36, -99.36 104.46 0.26 40
3 07/14/2021 14:05:12 75.46,-153.84 77.02 07/14/2021 14:05:02 75.46,-153.92 77.05 2.62 10
4 07/14/2021 14:54:17 -76.55, 17.17 104.26 07/14/2021 14:55:24 -76.55, 17.11 104.31 1.60 67
5 07/17/2021 05:32:25 -75.03, 153.21 102.05 07/17/2021 05:31:24 -75.04, 153.28 102.02 2.30 61
6 07/17/2021 06:21:28 76.15, -35.90 76.65 07/17/2021 06:21:44 76.16, -35.84 76.62 1.84 16
7 07/19/2021 21:48:48 -75.38, -89.97 101.97 07/19/2021 21:48:14 -75.38, -89.94 101.95 1.08 34
8 07/19/2021 22:37:52 76.44, 80.90 76.79 07/19/2021 22:38:35 76.44, 80.94 76.75 0.97 43
9 07/22/2021 14:05:11 -75.72, 26.87 101.85 07/22/2021 14:05:04 -75.72, 26.89 101.85 0.41 7



Historial Predications of SNOs between AQUA and NPP
